Location: Gleizolles
(44.4833°N, 6.7667°E)
Time: 00:48:45
(UTC+00:00)

Vanguard 2 Rocket - Pass Details

Date: 21 June 2024
Orbit: 555 x 3302 km, 32.9° (Epoch: 24 July)

Event Time Altitude Azimuth Distance (km) Brightness Sun altitude
Rises 22:13:31 0° 171° (S) 6,406 - -19.6°
Reaches altitude 10° 22:23:19 10° 142° (SE) 5,969 - -20.1°
Exits shadow 22:27:38 11° 128° (SE) 6,021 10.6 -20.4°
Maximum altitude 22:27:42 11° 128° (SE) 6,023 10.6 -20.4°
Drops below altitude 10° 22:32:13 10° 114° (ESE) 6,227 10.8 -20.6°
Sets 22:43:10 0° 88° (E) 7,211 11.4 -21.1°
